This is the latest recevied weather packets stored in our database for station/object VA3WBA-13. If no packets are shown the sender has not sent any weather packets the latest 10 day(s).
| Time | Temp. | Humidity | Pressure | Rain* | Wind** | Luminosity | Snow |
|---|---|---|---|---|---|---|---|
| 1777516957 | 23.89° C | 34% | 1010.5 hPa | - | - | - | - |
| 1777516342 | 23.89° C | 33% | 1010.5 hPa | - | - | - | - |
| 1777515728 | 23.89° C | 34% | 1010.6 hPa | - | - | - | - |
| 1777515114 | 23.89° C | 34% | 1010.6 hPa | - | - | - | - |
| 1777514500 | 23.89° C | 33% | 1010.5 hPa | - | - | - | - |
| 1777513885 | 23.89° C | 33% | 1010.4 hPa | - | - | - | - |
| 1777513271 | 24.44° C | 33% | 1010.3 hPa | - | - | - | - |
| 1777512657 | 24.44° C | 33% | 1010.3 hPa | - | - | - | - |
| 1777512042 | 24.44° C | 33% | 1010.1 hPa | - | - | - | - |
| 1777511427 | 24.44° C | 33% | 1010.1 hPa | - | - | - | - |
| 1777510813 | 25° C | 33% | 1010.1 hPa | - | - | - | - |
| 1777510199 | 25° C | 32% | 1010.1 hPa | - | - | - | - |
| 1777509585 | 25° C | 32% | 1010 hPa | - | - | - | - |
| 1777508971 | 25° C | 32% | 1009.8 hPa | - | - | - | - |
| 1777508356 | 25° C | 33% | 1009.7 hPa | - | - | - | - |
| 1777507742 | 24.44° C | 33% | 1009.7 hPa | - | - | - | - |
| 1777507128 | 24.44° C | 33% | 1009.7 hPa | - | - | - | - |
| 1777506514 | 24.44° C | 33% | 1009.6 hPa | - | - | - | - |
| 1777505900 | 24.44° C | 33% | 1009.7 hPa | - | - | - | - |
| 1777505285 | 23.89° C | 33% | 1009.5 hPa | - | - | - | - |
| 1777504671 | 23.89° C | 34% | 1009.5 hPa | - | - | - | - |
| 1777504057 | 23.89° C | 35% | 1009.6 hPa | - | - | - | - |
| 1777503443 | 23.33° C | 35% | 1009.6 hPa | - | - | - | - |
| 1777502828 | 23.33° C | 35% | 1009.6 hPa | - | - | - | - |
| 1777502214 | 22.78° C | 35% | 1009.7 hPa | - | - | - | - |
* Rain since midnight (hover to see other rain measurements)
** Current wind speed in m/s (hover to see current wind gust speed)